TimeEDT,TemperatureF,Dew PointF,Humidity,Sea Level PressureIn,VisibilityMPH,Wind Direction,Wind SpeedMPH,Gust SpeedMPH,PrecipitationIn,Events,Conditions,WindDirDegrees,DateUTC
12:51 AM,72.0,68.0,87,30.14,9.0,SSW,8.1,-,0.00,,Overcast,200,2013-07-05 04:51:00
1:51 AM,71.1,68.0,90,30.12,8.0,Calm,Calm,-,0.01,Rain,Light Rain,0,2013-07-05 05:51:00
2:51 AM,71.1,68.0,90,30.11,8.0,SSE,6.9,-,0.00,,Mostly Cloudy,160,2013-07-05 06:51:00
3:15 AM,71.6,68.0,88,30.16,0.8,SW,9.2,-,0.01,Rain,Rain,220,2013-07-05 07:15:00
3:29 AM,71.6,68.0,88,30.15,3.0,South,9.2,-,0.11,Rain,Light Rain,190,2013-07-05 07:29:00
3:38 AM,71.6,68.0,88,30.14,6.0,South,8.1,-,0.12,Rain,Light Rain,190,2013-07-05 07:38:00
3:51 AM,70.0,66.9,90,30.12,8.0,South,6.9,-,0.12,Rain,Light Rain,180,2013-07-05 07:51:00
4:51 AM,70.0,68.0,93,30.11,10.0,SSE,5.8,-,0.02,,Overcast,150,2013-07-05 08:51:00
5:09 AM,69.8,66.2,88,30.13,10.0,SSE,5.8,-,N/A,,Overcast,160,2013-07-05 09:09:00
5:51 AM,69.1,66.9,93,30.11,10.0,South,4.6,-,N/A,,Overcast,190,2013-07-05 09:51:00
6:28 AM,69.8,66.2,88,30.14,10.0,SSW,5.8,-,N/A,,Overcast,210,2013-07-05 10:28:00
6:51 AM,69.1,66.9,93,30.12,10.0,SSW,5.8,-,N/A,,Overcast,200,2013-07-05 10:51:00
7:51 AM,70.0,66.9,90,30.13,8.0,SSW,9.2,-,0.00,,Overcast,210,2013-07-05 11:51:00
8:51 AM,71.1,66.9,87,30.14,8.0,SSW,9.2,-,N/A,,Overcast,210,2013-07-05 12:51:00
9:51 AM,72.0,66.9,84,30.15,10.0,SW,9.2,-,N/A,,Overcast,220,2013-07-05 13:51:00
10:33 AM,71.6,66.2,83,30.18,7.0,SW,13.8,-,0.00,Rain,Light Rain,220,2013-07-05 14:33:00
10:51 AM,71.1,66.9,87,30.16,8.0,SW,10.4,-,0.00,Rain,Light Rain,220,2013-07-05 14:51:00
11:51 AM,72.0,68.0,87,30.17,6.0,SW,11.5,-,0.01,Rain,Light Rain,220,2013-07-05 15:51:00
12:51 PM,73.0,69.1,87,30.17,8.0,SW,6.9,-,0.00,Rain,Light Rain,220,2013-07-05 16:51:00
1:51 PM,73.9,68.0,82,30.14,10.0,SSW,5.8,-,0.00,,Overcast,200,2013-07-05 17:51:00
2:51 PM,75.0,66.9,76,30.14,10.0,WSW,10.4,-,N/A,,Overcast,240,2013-07-05 18:51:00
3:32 PM,75.2,68.0,78,30.15,10.0,SW,12.7,-,N/A,,Mostly Cloudy,230,2013-07-05 19:32:00
3:51 PM,77.0,68.0,74,30.13,10.0,SW,9.2,-,N/A,,Mostly Cloudy,230,2013-07-05 19:51:00
4:51 PM,79.0,66.9,66,30.11,10.0,SW,12.7,18.4,N/A,,Mostly Cloudy,220,2013-07-05 20:51:00
5:51 PM,78.1,66.9,68,30.10,10.0,SSW,6.9,-,N/A,,Mostly Cloudy,210,2013-07-05 21:51:00
6:51 PM,77.0,66.9,71,30.11,10.0,SW,8.1,-,N/A,,Mostly Cloudy,230,2013-07-05 22:51:00
7:51 PM,73.9,69.1,85,30.11,10.0,South,5.8,-,N/A,,Mostly Cloudy,170,2013-07-05 23:51:00
8:51 PM,73.0,68.0,84,30.13,10.0,South,5.8,-,N/A,,Mostly Cloudy,190,2013-07-06 00:51:00
9:51 PM,73.0,69.1,87,30.12,10.0,SSW,6.9,-,N/A,,Mostly Cloudy,200,2013-07-06 01:51:00
10:51 PM,72.0,69.1,91,30.14,10.0,South,5.8,-,N/A,,Overcast,190,2013-07-06 02:51:00
11:51 PM,72.0,69.1,91,30.15,8.0,South,5.8,-,N/A,,Mostly Cloudy,190,2013-07-06 03:51:00